Weather observations for the past three days for
Ithaca Tompkins International Airport
Imperial (Metric)
Date Time (edt) Wind (mph) Vis. (mi.) Weather Sky Cond. Temperature (ºF) Relative Humidity Wind Chill (°F) Heat Index (°F) Pressure Precipitation (in)
Air Dwpt 6 hour altimeter (in) sea level (mb) 1 hr 3 hr 6 hr
Max. Min.
25 14:56 SW 10 G 21 10.00 Fair CLR 80.1 52 38% 80 29.91 0.0
25 13:56 SW 14 G 22 10.00 Fair CLR 81 50 34% 80 29.91 0.0
25 12:56 SW 12 G 22 10.00 A Few Clouds FEW055 78.1 51.1 39% 79 29.92 0.0
25 11:56 SW 13 G 20 10.00 Fair CLR 78.1 50 37% 79 29.93 0.0
25 10:56 S 8 10.00 Fair CLR 77 55.9 48% 79 29.95 0.0
25 09:55 SW 5 10.00 Fair CLR 75.2 57.2 54% 78 29.98 0.0
25 08:55 S 3 10.00 Fair CLR 71.6 57.2 61% 29.98 0.0
25 07:55 S 5 10.00 Fair CLR 68 57.2 69% 29.96 0.0
25 06:55 E 3 10.00 Fair CLR 57.2 57.2 100% 29.96 0.0
25 05:55 E 3 10.00 Fair CLR 53.6 53.6 100% 29.95 0.0
24 20:55 N 7 10.00 Fair CLR 64.4 51.8 64% 29.9 0.0
24 19:55 N 14 10.00 Fair CLR 71.6 51.8 50% 29.89 0.0
24 18:55 N 16 G 28 10.00 A Few Clouds FEW055 73.4 53.6 50% 29.87 0.0
24 17:55 N 16 G 30 10.00 Partly Cloudy SCT050 75.2 53.6 47% 78 29.87 0.0
24 16:55 NW 17 G 28 10.00 Mostly Cloudy BKN050 75.2 55.4 50% 78 29.85 0.0
24 15:54 NW 9 10.00 Partly Cloudy SCT055 0 0 0% 0 0.0
24 14:56 NW 12 10.00 Partly Cloudy SCT032 0 0 0% 0 0.0
24 13:56 NW 17 10.00 Partly Cloudy SCT032 0 0 0% 0 0.0
24 12:56 NW 17 10.00 Mostly Cloudy BKN032 0 0 0% 0 0.0
24 11:56 NW 20 G 35 10.00 Overcast BKN032 OVC038 64.9 54 68% 29.81 1008.9
24 10:56 NW 23 G 33 10.00 Mostly Cloudy and Breezy BKN029 BKN038 64.9 55 70% 29.79 1008.0 0.02
24 09:56 NW 22 G 32 10.00 Overcast and Breezy BKN020 OVC026 60.1 55 84% 29.75 1006.9
24 08:56 NW 21 G 29 6.00 Light Rain Fog/Mist and Breezy OVC015 59 57 93% 29.73 1006.0 0.02
24 07:56 W 18 G 25 3.00 Light Rain Fog/Mist OVC010 59 57 66 59 93% 29.71 1005.3 0.03
24 06:56 W 22 10.00 Overcast and Breezy BKN010 OVC015 60.1 57.9 93% 29.7 1005.1 0.03
24 05:56 W 16 G 24 10.00 Overcast BKN023 BKN027 OVC035 62.1 55.9 80% 29.67 1004.2
24 04:56 W 16 G 22 10.00 Overcast BKN028 OVC044 63 55.9 78% 29.66 1003.6
24 03:56 W 13 10.00 Overcast BKN036 OVC043 64 55 73% 29.64 1003.0
24 02:56 W 14 10.00 Overcast SCT034 OVC042 66 55.9 70% 29.63 1002.7
24 01:56 W 16 G 22 10.00 Overcast OVC044 66 57 75.9 64 73% 29.63 1002.5
24 00:56 NW 14 10.00 Overcast OVC025 66 59 78% 29.63 1002.5
23 23:56 W 15 G 18 10.00 Fair CLR 68 61 78% 29.61 1001.6
23 22:56 W 16 G 23 10.00 Fair CLR 70 62.1 76% 29.6 1001.4
23 21:56 W 17 10.00 Partly Cloudy SCT060 71.1 64.9 81% 29.6 1001.3
23 20:56 W 17 G 29 10.00 Light Rain BKN036 BKN045 73 68 84% 29.58 1000.6
23 19:56 W 16 10.00 Mostly Cloudy SCT030 BKN080 75.9 69.1 82.9 72 79% 77 29.56 999.9 0.38
23 18:56 W 18 G 40 8.00 Light Rain SCT008 BKN028 OVC033 72 70 94% 29.56 1000.0 0.38
23 17:56 S 9 10.00 Mostly Cloudy FEW022 BKN028 BKN055 78.1 72 82% 80 29.57 1000.5
23 16:56 SW 8 10.00 Thunderstorm in Vicinity SCT015 BKN029 OVC075 75.9 71.1 85% 76 29.6 1001.3
23 15:56 SW 9 10.00 Mostly Cloudy BKN055 78.1 70 76% 80 29.6 1001.5
23 14:56 SW 15 G 26 10.00 Thunderstorm Light Rain SCT040 BKN050 78.8 69.8 74% 81 29.6 0.0
23 13:56 S 10 10.00 A Few Clouds FEW055 82 71.1 82.9 77 69% 86 29.61 1001.6
23 12:56 SW 14 10.00 Fair CLR 81 69.1 67% 84 29.64 1002.5
23 11:56 SW 16 10.00 Fair CLR 81 70 69% 84 29.66 1003.4
23 10:56 S 15 10.00 Fair CLR 81 71.1 72% 85 29.68 1004.1
23 09:56 S 9 10.00 Partly Cloudy SCT090 79 71.1 77% 82 29.69 1004.5
23 08:56 S 10 10.00 Partly Cloudy SCT100 78.1 70 76% 80 29.71 1005.1
23 07:56 S 9 10.00 Partly Cloudy SCT100 78.1 69.1 78.1 72 74% 80 29.74 1006.0
23 06:56 SE 6 10.00 Fair CLR 73.9 69.1 85% 29.75 1006.3
23 05:56 S 7 10.00 Fair CLR 73 68 84% 29.76 1006.7
23 04:56 S 9 10.00 Fair CLR 73.9 68 82% 29.78 1007.2
23 03:56 S 8 10.00 Fair CLR 72 68 87% 29.79 1007.6
23 02:56 S 10 10.00 Fair CLR 73 68 84% 29.81 1008.4
23 01:56 SE 8 10.00 Fair CLR 73 68 73.9 70 84% 29.84 1009.5
23 00:56 SE 7 10.00 Fair CLR 73 68 84% 29.87 1010.2
22 23:56 E 5 10.00 Fair CLR 71.1 66.9 87% 29.89 1011.3
22 22:56 E 6 10.00 Fair CLR 71.1 66.9 87% 29.9 1011.6
22 21:56 E 10 10.00 Fair CLR 72 66.9 84% 29.93 1012.5
22 20:56 E 8 10.00 Thunderstorm in Vicinity CLR 72 64.9 79% 29.92 1012.2
22 19:56 E 12 10.00 Fair CLR 73 64 88 73 74% 29.94 1012.9
22 18:56 NE 3 10.00 Thunderstorm in Vicinity CLR 84.9 71.1 63% 90 29.92 1012.1
22 17:56 NE 6 10.00 Fair CLR 84.9 71.1 63% 90 29.92 1012.3
22 16:56 N 5 10.00 A Few Clouds FEW042 86 71.1 61% 92 29.95 1013.2
22 15:56 Vrbl 6 10.00 Fair CLR 88 72 59% 95 29.97 1013.8
Date Time (edt) Wind (mph) Vis. (mi.) Weather Sky Cond. Air Dwpt Max. Min. Relative Humidity Wind Chill (°F) Heat Index (°F) altimeter (in) sea level (mb) 1 hr 3 hr 6 hr
6 hour
Temperature (ºF) Pressure Precipitation (in)